Regional Weather Roundup
Issued by NWS Grand Forks, ND

Home | Current Version | Previous Version | Text Only | Print | Product List | Glossary On
Versions: 1 2 3 4 5 6 7 8 9 10 11 12 13 14 15 16 17 18 19 20 21 22 23 24 25 26 27 28 29 30 31 32 33 34 35 36 37 38 39 40 41 42 43 44 45 46 47 48 49 50
000
ASUS43 KFGF 080631
RWRFGF
PRAIRIE TO PINES  WEATHER ROUNDUP
NATIONAL WEATHER SERVICE EASTERN NORTH DAKOTA/GRAND FORKS ND
1200 AM CST MON FEB 08 2016

 **SATELLITE DATA USED TO AUGMENT SKY COVER AT AUTOMATED STATIONS**
 *****  WEATHER ACROSS EASTERN NORTH DAKOTA  *****

CITY           SKY/WX    TMP DP  RH WIND       PRES   REMARKS
GRAND FORKS    LGT SNOW  15  10  80 N23G33    30.05S BLWGSNOWWCI  -3
6HR MIN TEMP:  14; 6HR MAX TEMP:  16; 6HR PCP: TRACE;

GRAND FRKS AFB LGT SNOW  14   9  79 N28G38    30.05F WCI  -6
GRAND FRKS NWS   N/A     14 N/A N/A N21         N/A  WCI  -4
DEVILS LAKE    FLURRIES  19  14  81 N24G31    30.08R WCI   2
6HR MIN TEMP:  19; 6HR MAX TEMP:  20; 6HR PCP: TRACE;

FARGO          SNOW      14  10  84 N30G40    30.03F VSB 1/2 WCI  -7
WAHPETON ARPT  CLOUDY    16  10  79 N17G30    30.01S WCI   0
$$

 ***** WEATHER ACROSS CENTRAL AND WESTERN NORTH DAKOTA  *****

CITY           SKY/WX    TMP DP  RH WIND       PRES   REMARKS
BISMARCK       CLEAR     30  17  58 NW28G36   30.17R WCI  15
6HR MIN TEMP:  30; 6HR MAX TEMP:  36;

MINOT          FLURRIES  29  16  58 NW23G39   30.18R WCI  15
6HR MIN TEMP:  27; 6HR MAX TEMP:  33; 6HR PCP: TRACE;

JAMESTOWN      CLOUDY    22  15  75 N29G38    30.05S WCI   4
6HR MIN TEMP:  21; 6HR MAX TEMP:  23; 6HR PCP: TRACE;

MINOT AFB      PTCLDY    26  20  76 NW24G31   30.17R WCI  11
GARRISON         N/A     25  18  74 NW26G37   30.19R WCI   9
WILLISTON      CLEAR     27  19  72 NW21G28   30.30S WCI  13
6HR MIN TEMP:  27; 6HR MAX TEMP:  34;

DICKINSON      CLEAR     25  14  63 NW17      30.25R WCI  12
6HR MIN TEMP:  25; 6HR MAX TEMP:  31;

HETTINGER      CLEAR     26  15  63 NW18G28   30.26R WCI  13
6HR MIN TEMP:  26; 6HR MAX TEMP:  33;

$$

 *****  OTHER AIRPORT OBSERVATIONS IN OUR AREA  *****

CITY           SKY/WX    TMP DP  RH WIND       PRES   REMARKS
WALHALLA       LGT SNOW  14  14 100 N18G36    30.10R WCI  -3
GRAFTON AIRPOR LGT SNOW  14  12  92 N29G38    30.08S WCI  -7
VALLEY CITY AR FLURRIES  19  12  73 N25G38    30.06R WCI   2
CANDO          FLURRIES  19  14  79 N25G32    30.12R WCI   2
CAVALIER APRT  CLOUDY    14  10  85 N24G38    30.08R FOG     WCI  -5
GWINNER        CLOUDY    21  16  79 N25G38    30.04S WCI   4
SHEYENNE NWR     N/A     17  11  78 N15       29.95  WCI   2
ROLLA          FLURRIES  18  14  86 N24G32    30.09R WCI   0
 ***** THE ABOVE OBSERVATIONS ARE NON NWS ARE NOT QUALITY
       CONTROLLED AND MAY MIS-REPORT RAIN FOR SNOW...
$$

  *****  WEATHER ACROSS NORTHERN MINNESOTA  *****

CITY           SKY/WX    TMP DP  RH WIND       PRES   REMARKS
FLAG ISLAND    CLOUDY     3   0  85 NW22G29   29.92R HAZE    WCI -19
WARROAD        LGT SNOW   5   0  78 NW15G23   29.94S WCI -13
ROSEAU         LGT SNOW   7   1  78 NW23      29.96S WCI -14
HALLOCK        LGT SNOW  10   7  85 N21G29    30.05R WCI  -9
THF RVR FALLS  NOT AVBL
BAUDETTE       LGT SNOW   4  -2  76 NW21G26   29.88S WCI -17
6HR MIN TEMP:   4; 6HR MAX TEMP:  11; 6HR PCP: TRACE;

WASKISH        CLOUDY     7   1  78 NW12G18   29.89R WCI  -9
CROOKSTON      LGT SNOW  10   7  85 N31       30.04R VSB 3/4 WCI -12
STEPHEN NDAWN    N/A     10   7  85 N20         N/A  WCI  -8
GREENBUSH NDAW   N/A      7   3  85 N22         N/A  WCI -14
$$
  *****  WEATHER ACROSS CENTRAL AND WEST MINNESOTA  *****

CITY           SKY/WX    TMP DP  RH WIND       PRES   REMARKS
FOSSTON        LGT SNOW   5   1  85 NW23G29   29.95S VSB 1   WCI -17
BEMIDJI        LGT SNOW   5  -1  78 NW25G33   29.87S WCI -18
PARK RAPIDS    LGT SNOW   7   0  73 NW24G33   29.86R WCI -14
6HR MIN TEMP:   9; 6HR MAX TEMP:  14; 6HR PCP: TRACE;

ELBOW LAKE     LGT SNOW  10   7  85 NW24G39   29.94R WCI -10
WADENA         LGT SNOW   9   3  78 NW20G26   29.86S WCI -11
DETROIT LAKES  LGT SNOW  10   7  85 N23G35    29.93R WCI -10
MOORHEAD       CLOUDY    12  10  92 N30       30.02S WCI  -9
FERGUS FALLS   LGT SNOW  10   7  85 N28G43    29.99R WCI -11
MORRIS MN      SNOW      12  10  92 N36G43    29.92R VSB 1/4 WCI -11
STAPLES        LGT SNOW   9   5  85 NW18      29.84S WCI -10
$$
  *****  WEATHER ELSEWHERE ACROSS MINNESOTA  *****

CITY           SKY/WX    TMP DP  RH WIND       PRES   REMARKS
DULUTH         LGT SNOW  16  12  84 NW15      29.64R BLWGSNOWWCI   1
6HR MIN TEMP:  16; 6HR MAX TEMP:  28; 6HR PCP:  0.02;

INTRNTL FALLS  LGT SNOW   8   3  80 NW15      29.82R WCI  -9
6HR MIN TEMP:   8; 6HR MAX TEMP:  22; 6HR PCP:  0.01;

ELY            FLURRIES  16  12  86 N7G16     29.68R WCI   6
CLOQUET        LGT SNOW  14   9  79 NW15G25   29.69R WCI  -1
WHEATON        LGT SNOW  16  12  86 NW22G32   30.02S WCI  -2
BRAINERD       LGT SNOW  11   4  73 N21       29.81R WCI  -8
6HR MIN TEMP:  11; 6HR MAX TEMP:  19; 6HR PCP: TRACE;

HIBBING        LGT SNOW   8   4  83 NW25      29.73R FOG     WCI -13
6HR MIN TEMP:   9; 6HR MAX TEMP:  22; 6HR PCP: TRACE;

ALEXANDRIA     LGT SNOW  10   3  73 NW23G33   29.87R WCI -10
6HR MIN TEMP:  10; 6HR MAX TEMP:  20; 6HR PCP: TRACE;

SAINT CLOUD    CLOUDY    13   5  70 NW23G30   29.80R WCI  -6
6HR MIN TEMP:  13; 6HR MAX TEMP:  24; 6HR PCP: TRACE;

MINNEAPOLIS    FLURRIES  16   8  71 NW22      29.78R WCI  -2
6HR MIN TEMP:  16; 6HR MAX TEMP:  33; 6HR PCP:  0.02;

$$

  *****  WEATHER ACROSS SOUTH DAKOTA  *****

CITY           SKY/WX    TMP DP  RH WIND       PRES   REMARKS
SIOUX FALLS    CLOUDY    24  16  71 N23G39    29.97R WCI   9
6HR MIN TEMP:  24; 6HR MAX TEMP:  29; 6HR PCP: TRACE;

BROOKINGS      FLURRIES  20  15  81 N26G32    29.94S WCI   2
WATERTOWN      FLURRIES  20  13  74 N30G41    29.96R WCI   1
6HR MIN TEMP:  20; 6HR MAX TEMP:  23; 6HR PCP: TRACE;

HURON          CLOUDY    28  19  69 NW26G37   30.05R WCI  13
6HR MIN TEMP:  27; 6HR MAX TEMP:  30; 6HR PCP: TRACE;

SISSETON         N/A     17  13  84 N26G33    30.00R WCI  -2
ABERDEEN       CLOUDY    28  18  66 N23G41    30.06S WCI  14
6HR MIN TEMP:  27; 6HR MAX TEMP:  30; 6HR PCP: TRACE;

MITCHELL       PTCLDY    29  20  69 NW28G37   30.06S WCI  14
PIERRE         PTCLDY    31  17  56 NW26G37   30.16R WCI  17
6HR MIN TEMP:  31; 6HR MAX TEMP:  36;

MOBRIDGE       PTCLDY    30  17  58 NW28G45   30.12R WCI  15
RAPID CITY     CLEAR     30   9  41 NW30G41   30.28S WCI  15
6HR MIN TEMP:  30; 6HR MAX TEMP:  35;

$$

  *****  SOME WEATHER IN NEARBY STATES *****

CITY           SKY/WX    TMP DP  RH WIND       PRES   REMARKS
GLASGOW MT     CLEAR     23  16  74 W7        30.41R WCI  15
6HR MIN TEMP:  23; 6HR MAX TEMP:  34;

GREAT FALLS MT CLEAR     30  17  58 SW10      30.42S WCI  21
6HR MIN TEMP:  30; 6HR MAX TEMP:  41;

CHEYENNE WY    CLOUDY    17   9  70 N9        30.34S WCI   6
6HR MIN TEMP:  17; 6HR MAX TEMP:  26;

SCOTTSBLUFF NE CLEAR     25  13  60 NW14      30.37S WCI  13
6HR MIN TEMP:  25; 6HR MAX TEMP:  32;

OMAHA NE       CLOUDY    30  23  75 NW26G37   29.99S WCI  16
6HR MIN TEMP:  30; 6HR MAX TEMP:  36; 6HR PCP:  0.01;

DES MOINES IA  FLURRIES  29  21  72 NW20G28   29.86S WCI  16
6HR MIN TEMP:  29; 6HR MAX TEMP:  36; 6HR PCP: TRACE;

DAVENPORT IA   CLOUDY    33  31  92 W14       29.71F WCI  23
6HR MIN TEMP:  32; 6HR MAX TEMP:  37;

CHICAGO IL     CLEAR     32  27  81 SW8       29.68F WCI  25
6HR MIN TEMP:  32; 6HR MAX TEMP:  40;

EAU CLAIRE WI  FLURRIES  22  14  71 NW16G23   29.67R WCI   8
6HR MIN TEMP:  22; 6HR MAX TEMP:  36; 6HR PCP: TRACE;

LA CROSSE WI   LGT SNOW  24  19  81 NW21G29   29.68R WCI   9
6HR MIN TEMP:  26; 6HR MAX TEMP:  38; 6HR PCP: TRACE;

$$

  *****  SOME NATIONAL WEATHER *****

CITY           SKY/WX    TMP DP  RH WIND       PRES   REMARKS
LA GUARDIA NY  CLOUDY    39  26  59 NE20G25   29.86F
6HR MIN TEMP:  39; 6HR MAX TEMP:  40;

RALEIGH NC     MOCLDY    38  21  50 VRB3      29.82F
6HR MIN TEMP:  38; 6HR MAX TEMP:  43;

ATLANTA GA     PTCLDY    42  22  44 W9        29.97S
6HR MIN TEMP:  40; 6HR MAX TEMP:  49;

NEW ORLEANS LA CLEAR     45  32  60 SW8       30.16F
6HR MIN TEMP:  44; 6HR MAX TEMP:  55;

OKLAHOMA CITY  CLOUDY    43  18  36 NW16      30.28S
6HR MIN TEMP:  43; 6HR MAX TEMP:  55;

ALBUQUERQUE NM CLEAR     33  18  53 SE5       30.40R
6HR MIN TEMP:  31; 6HR MAX TEMP:  55;

SALT LAKE CITY PTCLDY    29  25  85 CALM      30.66S FOG
6HR MIN TEMP:  27; 6HR MAX TEMP:  36;

LOS ANGELES CA CLEAR     68  28  22 SE6       30.12R
6HR MIN TEMP:  65; 6HR MAX TEMP:  74;

BOISE ID       CLEAR   C1F1C2F2C3F3C4F4C5F5C6F6C7F7C8F8C9F9CaFaCbFbCcFcCd!


USA.gov is the U.S. government's official web portal to all federal, state and local government web resources and services.